This demonstration page uses our WeatherBlox Daily Observations layout. Learn more.

Left ArrowRight Arrow

39.29038, -76.61219

Hourly Observations for December 17, 2020

Temp ( °F °C ) Dew Point ( °F °C ) Humidity (%) Winds ( mph kmh ) Pressure ( in mb ) Visibility ( mi km ) Precip ( " mm )
12:10 am 00:10 Cloudy with Light Freezing Rain 31 -0.6 27 -2.8 85 85 WNW 15 24 29.76 1008 4 6 0.00 0.00
12:22 am 00:22 Cloudy with Light Freezing Rain 31 -0.6 26 -3.3 82 82 WNW 20 31 29.80 1009 4 6 0.00 0.00
12:40 am 00:40 Cloudy with Mist and Fog 30 -1.1 26 -3.3 85 85 NW 14 22 29.79 1009 5 8 0.00 0.00
12:54 am 00:54 Cloudy with Mist and Fog 30 -1.1 26 -3.3 85 85 NW 13 20 29.79 1009 5 8 0.00 0.00
1:39 am 01:39 Cloudy with Light Snow 30 -1.1 25 -3.9 82 82 NNW 14 22 29.82 1010 5 8 0.02 0.51
1:54 am 01:54 Cloudy with Mist and Fog 30 -1.1 25 -3.9 82 82 NW 14 22 29.82 1010 6 10 0.02 0.51
2:33 am 02:33 Mostly Cloudy 30 -1.1 24 -4.4 79 79 NNW 12 19 29.84 1011 7 11 0.00 0.00
2:54 am 02:54 Mostly Cloudy 29 -1.7 23 -5 78 78 N 13 20 29.83 1010 7 11 0.00 0.00
3:54 am 03:54 Mostly Clear 28 -2.2 22 -5.6 78 78 VRB 6 9 29.86 1011 10 16 0.00 0.00
4:54 am 04:54 Partly Cloudy 28 -2.2 21 -6.1 75 75 NNW 8 13 29.87 1011 10 16 0.00 0.00
5:54 am 05:54 Partly Cloudy 27 -2.8 20 -6.7 75 75 NNW 9 15 29.90 1012 10 16 0.00 0.00
6:54 am 06:54 Mostly Clear 25 -3.9 19 -7.2 78 78 WNW 6 9 29.93 1014 10 16 0.00 0.00
7:54 am 07:54 Mostly Sunny 26 -3.3 20 -6.7 78 78 WNW 7 11 29.95 1014 10 16 0.00 0.00
8:54 am 08:54 Mostly Sunny 29 -1.7 21 -6.1 72 72 WNW 8 13 29.98 1015 10 16 0.00 0.00
9:54 am 09:54 Mostly Sunny 31 -0.6 22 -5.6 69 69 NW 9 15 30.01 1016 10 16 0.00 0.00
10:54 am 10:54 Mostly Sunny 34 1.1 24 -4.4 67 67 NW 6 9 30.02 1017 10 16 0.00 0.00
11:54 am 11:54 Mostly Sunny 36 2.2 25 -3.9 64 64 NNW 8 13 30.01 1016 10 16 0.00 0.00
12:54 pm 12:54 Mostly Sunny 37 2.8 25 -3.9 62 62 NNW 8 13 29.99 1016 10 16 0.00 0.00
1:54 pm 13:54 Mostly Sunny 38 3.3 25 -3.9 60 60 N 7 11 29.99 1016 10 16 0.00 0.00
2:54 pm 14:54 Mostly Sunny 39 3.9 25 -3.9 57 57 N 5 7 30.01 1016 10 16 0.00 0.00
3:54 pm 15:54 Mostly Sunny 37 2.8 25 -3.9 62 62 N 6 9 30.03 1017 10 16 0.00 0.00
4:54 pm 16:54 Mostly Clear 36 2.2 24 -4.4 62 62 NNW 6 9 30.05 1018 10 16 0.00 0.00
5:54 pm 17:54 Mostly Clear 34 1.1 24 -4.4 67 67 Calm 30.09 1019 10 16 0.00 0.00
6:54 pm 18:54 Mostly Clear 32 0 25 -3.9 75 75 VRB 3 6 30.10 1019 10 16 0.00 0.00
7:54 pm 19:54 Partly Cloudy 32 0 24 -4.4 73 73 Calm 30.13 1020 10 16 0.00 0.00
8:54 pm 20:54 Mostly Cloudy 33 0.6 24 -4.4 70 70 VRB 3 6 30.14 1021 10 16 0.00 0.00
9:54 pm 21:54 Mostly Cloudy 33 0.6 25 -3.9 72 72 Calm 30.15 1021 10 16 0.00 0.00
10:54 pm 22:54 Mostly Cloudy 32 0 24 -4.4 73 73 Calm 30.16 1021 10 16 0.00 0.00
11:54 pm 23:54 Mostly Cloudy 33 0.6 23 -5 66 66 Calm 30.17 1022 10 16 0.00 0.00

Powered by AerisWeather